User: anonymous   Login
Location: Koussan�
(15.2012°N, 12.5548°W)
Time: 21:29:21
(UTC+00:00)
Language:

H-10 deb - Orbit

View from above orbital plane
View from above orbital plane
View from above satellite
View from above satellite

Ground track
Ground track

The orbit data is extracted from the following two-line orbital elements,

1 25279U 89062E   21016.54979000 -.00000013  00000-0  35128-3 0  9991
2 25279   7.0497 217.7942 7048937 190.1530 139.0821  2.50166308213992
Epoch (UTC): 16 January 2021 13:11:41
Eccentricity: 0.7048937
inclination: 7.0497°
perigee height: 386 km
apogee height: 32701 km
right ascension of ascending node: 217.7942°
argument of perigee: 190.1530°
revolutions per day: 2.50166308
mean anomaly at epoch: 139.0821°
orbit number at epoch: 21399

The dashed part of the orbit path shows where the satellite is in the earth's shadow,  

DLR